Location: Wildlife_Club
(35.6000°N, 81.4330°W)
Time: 23:19:06
(UTC-04:00)

Amateur Radio Satellites - All Passes

Search period start: 30 July 2014 22:49
Search period end: 31 July 2014 22:49
Location: Wildlife_Club, 35.6000°N, 81.4330°W

Satellite Date Start Highest point End Downlink Frequencies (MHz)
Time Altitude Azimuth
ISS 30 Jul 22:51:05 22:54:19 50° 134° (SE) 22:57:34 145.800 FM
HO-68 30 Jul 22:53:44 22:59:45 29° 263° (W) 23:05:48 435.675 MHz FM
Oscar 11 30 Jul 23:15:20 23:18:56 26° 264° (W) 23:22:33 145.825 FM, Beacon 2401.500 USB
SO-50 30 Jul 23:35:26 23:36:28 11° 253° (WSW) 23:37:29 436.795 FM
RS-15 30 Jul 23:37:32 23:48:37 80° 244° (WSW) 00:00:11 29.354 - 29.394 USB, Beacon 29.352 USB
FUNcube-1 30 Jul 23:41:51 23:45:51 36° 262° (W) 23:49:47 145.950 - 145.970 MHz USB
UOSAT-12 30 Jul 23:41:59 23:46:42 68° 59° (ENE) 23:51:19 437.025 FM, 437.400 FM
Sapphire 30 Jul 23:43:56 23:47:22 17° 104° (ESE) 23:50:48 437.095 MHz 1200 baud AX-25 AFSK
PCSat 31 Jul 00:15:20 00:20:17 38° 110° (ESE) 00:25:15 145.825 MHz
ISS 31 Jul 00:28:51 00:31:13 18° 331° (NNW) 00:33:37 145.800 FM
UOSAT-12 31 Jul 01:24:58 01:26:12 11° 254° (WSW) 01:27:27 437.025 FM, 437.400 FM
Sapphire 31 Jul 01:25:01 01:30:17 54° 300° (WNW) 01:35:36 437.095 MHz 1200 baud AX-25 AFSK
Oscar 19 31 Jul 01:50:43 01:53:33 15° 92° (E) 01:56:22 437.125 CW, 437.150 USB
RS-15 31 Jul 01:53:37 01:59:15 15° 261° (W) 02:05:02 29.354 - 29.394 USB, Beacon 29.352 USB
PCSat 31 Jul 01:59:14 02:03:45 27° 306° (NW) 02:08:18 145.825 MHz
Oscar 10/S400 31 Jul 02:16:30 02:59:11 71° 194° (SSW) 12:26:33 145.825 - 145.975 CW/USB, Beacon 145.810 USB
Oscar 16 31 Jul 02:18:04 02:22:35 30° 97° (E) 02:27:06 437.025 USB, Beacon 2401.1428
JAS-1B 31 Jul 02:20:11 02:23:39 13° 83° (E) 02:26:55 435.800 - 435.900 CW/SSB
ITAMSAT 1 31 Jul 02:43:48 02:47:47 22° 95° (E) 02:51:44 435.822 SSB
Uribyol 2 31 Jul 03:02:05 03:06:50 36° 98° (E) 03:11:33 436.500 FM
AO-27 31 Jul 03:03:00 03:07:45 35° 98° (E) 03:12:27 436.795 MHz FM
TMSAT-1 31 Jul 03:14:05 03:16:01 12° 91° (E) 03:17:56 436.925 FM
PANSAT 31 Jul 03:21:38 03:22:59 12° 159° (SSE) 03:24:20 not established
AO-Echo 31 Jul 03:27:43 03:32:43 67° 101° (ESE) 03:37:31 ?
Oscar 19 31 Jul 03:28:08 03:33:11 56° 287° (WNW) 03:38:14 437.125 CW, 437.150 USB
Gurwin Techsat 1B 31 Jul 03:37:33 03:42:14 31° 97° (E) 03:46:53 435.225 FM
OPAL 31 Jul 03:50:44 03:54:50 27° 66° (ENE) 03:58:57 ?
Oscar 16 31 Jul 03:57:28 04:01:49 28° 291° (WNW) 04:06:10 437.025 USB, Beacon 2401.1428
JAS-1B 31 Jul 04:06:35 04:15:47 80° 103° (ESE) 04:23:26 435.800 - 435.900 CW/SSB
ITAMSAT 1 31 Jul 04:22:36 04:27:20 37° 290° (WNW) 04:32:03 435.822 SSB
AO-7 31 Jul 04:40:46 04:47:15 25° 95° (E) 04:53:39 29.400 - 29.500 MHz
Uribyol 2 31 Jul 04:42:03 04:46:04 23° 293° (WNW) 04:50:04 436.500 FM
AO-27 31 Jul 04:42:57 04:47:02 24° 293° (WNW) 04:51:06 436.795 MHz FM
TMSAT-1 31 Jul 04:51:06 04:56:22 69° 285° (WNW) 05:01:36 436.925 FM
PANSAT 31 Jul 04:59:26 05:02:36 24° 171° (S) 05:05:46 not established
AO-Echo 31 Jul 05:08:51 05:10:48 12° 298° (WNW) 05:12:44 ?
Gurwin Techsat 1B 31 Jul 05:17:36 05:22:04 28° 292° (WNW) 05:26:31 435.225 FM
ISS 31 Jul 05:22:38 05:25:14 20° 31° (NNE) 05:27:49 145.800 FM
Uosat F 31 Jul 05:26:32 05:31:28 55° 101° (E) 05:36:20 435.120 FM
OPAL 31 Jul 05:29:19 05:33:36 29° 261° (W) 05:37:54 ?
KITSAT 1 31 Jul 05:56:10 06:03:57 54° 111° (ESE) 06:11:45 435.175 FM
JAS-1B 31 Jul 05:58:33 06:05:00 22° 304° (NW) 06:10:51 435.800 - 435.900 CW/SSB
STRAND 1 31 Jul 06:18:20 06:21:44 18° 65° (ENE) 06:25:09 ?
Hamsat 31 Jul 06:22:39 06:25:04 15° 93° (E) 06:27:28 145.90 MHz
AO-7 31 Jul 06:32:16 06:40:27 64° 292° (WNW) 06:48:35 29.400 - 29.500 MHz
MaSat-1 31 Jul 06:33:34 06:38:23 35° 60° (ENE) 06:42:53 437.345 MHz
PANSAT 31 Jul 06:39:02 06:42:21 27° 184° (S) 06:45:40 not established
Saudisat 1A 31 Jul 06:50:31 06:54:16 28° 112° (ESE) 06:58:01 436.775 MHz
ISS 31 Jul 06:58:52 07:02:04 41° 227° (SW) 07:05:14 145.800 FM
JAS-2 31 Jul 06:59:10 07:04:05 30° 95° (E) 07:08:39 435.800 - 435.900 CW/SSB, 435.910 FM
Uosat F 31 Jul 07:06:53 07:09:45 15° 296° (WNW) 07:12:36 435.120 FM
KITSAT 1 31 Jul 07:52:29 07:59:36 33° 310° (NW) 08:06:47 435.175 FM
STRAND 1 31 Jul 07:55:34 08:00:31 48° 260° (W) 08:05:29 ?
Hamsat 31 Jul 07:57:07 08:01:09 40° 287° (WNW) 08:05:13 145.90 MHz
MaSat-1 31 Jul 08:11:16 08:15:29 26° 257° (WSW) 08:19:26 437.345 MHz
PANSAT 31 Jul 08:19:33 08:22:02 16° 196° (SSW) 08:24:30 not established
SO-67 31 Jul 08:22:20 08:25:45 54° 100° (E) 08:29:09 435.3500 MHz FM
AO-7 31 Jul 08:28:49 08:31:35 12° 311° (NW) 08:34:22 29.400 - 29.500 MHz
Saudisat 1A 31 Jul 08:30:02 08:33:46 26° 308° (NW) 08:37:32 436.775 MHz
JAS-2 31 Jul 08:44:15 08:49:06 29° 293° (WNW) 08:53:37 435.800 - 435.900 CW/SSB, 435.910 FM
PCSat 31 Jul 09:06:50 09:10:33 19° 50° (NE) 09:14:16 145.825 MHz
Sapphire 31 Jul 10:15:49 10:21:13 64° 62° (ENE) 10:26:34 437.095 MHz 1200 baud AX-25 AFSK
UKube-1 31 Jul 10:22:46 10:26:53 41° 99° (E) 10:30:59 145.840 MHz, 145.915 MHz
HO-68 31 Jul 10:23:11 10:30:17 65° 103° (ESE) 10:37:20 435.675 MHz FM
PCSat 31 Jul 10:49:02 10:54:22 60° 247° (WSW) 10:59:40 145.825 MHz
Oscar 11 31 Jul 11:05:02 11:09:22 69° 101° (E) 11:13:41 145.825 FM, Beacon 2401.500 USB
FUNcube-1 31 Jul 11:33:31 11:37:35 49° 100° (E) 11:41:43 145.950 - 145.970 MHz USB
RS-15 31 Jul 11:49:43 11:56:45 19° 101° (E) 12:03:39 29.354 - 29.394 USB, Beacon 29.352 USB
UKube-1 31 Jul 12:00:13 12:02:43 15° 294° (WNW) 12:05:12 145.840 MHz, 145.915 MHz
Sapphire 31 Jul 12:01:13 12:04:01 14° 257° (WSW) 12:06:49 437.095 MHz 1200 baud AX-25 AFSK
SO-50 31 Jul 12:04:07 12:08:22 46° 115° (ESE) 12:12:41 436.795 FM
HO-68 31 Jul 12:12:09 12:17:21 22° 299° (WNW) 12:22:32 435.675 MHz FM
JAS-1B 31 Jul 13:02:06 13:05:13 12° 49° (NE) 13:08:23 435.800 - 435.900 CW/SSB
Oscar 19 31 Jul 13:05:03 13:08:13 17° 65° (ENE) 13:11:23 437.125 CW, 437.150 USB
FUNcube-1 31 Jul 13:11:58 13:13:33 12° 294° (WNW) 13:15:09 145.950 - 145.970 MHz USB
Oscar 16 31 Jul 13:32:19 13:36:49 33° 70° (ENE) 13:41:21 437.025 USB, Beacon 2401.1428
SO-50 31 Jul 13:46:06 13:49:10 18° 312° (NW) 13:52:16 436.795 FM
UOSAT-12 31 Jul 13:50:28 13:54:43 40° 114° (ESE) 13:59:04 437.025 FM, 437.400 FM
KITSAT 1 31 Jul 13:53:47 13:58:53 18° 40° (NE) 14:03:57 435.175 FM
RS-15 31 Jul 13:56:23 14:07:37 88° 298° (WNW) 14:18:36 29.354 - 29.394 USB, Beacon 29.352 USB
ITAMSAT 1 31 Jul 13:59:01 14:03:16 26° 68° (ENE) 14:07:32 435.822 SSB
Uribyol 2 31 Jul 14:17:04 14:21:55 41° 71° (ENE) 14:26:46 436.500 FM
AO-27 31 Jul 14:18:14 14:23:05 41° 71° (ENE) 14:27:57 436.795 MHz FM
TMSAT-1 31 Jul 14:31:44 14:34:46 16° 64° (ENE) 14:37:48 436.925 FM
AO-Echo 31 Jul 14:37:00 14:42:15 65° 74° (ENE) 14:47:31 ?
Oscar 19 31 Jul 14:42:08 14:47:06 52° 260° (W) 14:52:05 437.125 CW, 437.150 USB
JAS-1B 31 Jul 14:44:45 14:53:23 56° 68° (ENE) 15:02:54 435.800 - 435.900 CW/SSB
Gurwin Techsat 1B 31 Jul 14:55:45 15:00:35 37° 70° (ENE) 15:05:26 435.225 FM
Oscar 16 31 Jul 15:12:00 15:16:09 25° 264° (W) 15:20:20 437.025 USB, Beacon 2401.1428
Saudisat 1A 31 Jul 15:21:18 15:23:00 12° 45° (NE) 15:24:41 436.775 MHz
UOSAT-12 31 Jul 15:31:29 15:35:01 21° 311° (NW) 15:38:36 437.025 FM, 437.400 FM
AO-7 31 Jul 15:36:53 15:43:36 28° 59° (ENE) 15:50:18 29.400 - 29.500 MHz
ITAMSAT 1 31 Jul 15:37:55 15:42:35 33° 262° (W) 15:47:16 435.822 SSB
KITSAT 1 31 Jul 15:47:34 15:55:41 76° 61° (ENE) 16:03:43 435.175 FM
Uribyol 2 31 Jul 15:57:44 16:01:30 20° 265° (W) 16:05:18 436.500 FM
AO-27 31 Jul 15:58:52 16:02:42 21° 265° (W) 16:06:34 436.795 MHz FM
TMSAT-1 31 Jul 16:08:56 16:14:09 60° 259° (W) 16:19:23 436.925 FM
RS-15 31 Jul 16:12:53 16:21:34 26° 322° (NW) 16:30:14 29.354 - 29.394 USB, Beacon 29.352 USB
AO-Echo 31 Jul 16:18:52 16:21:22 13° 269° (W) 16:23:54 ?
JAS-1B 31 Jul 16:36:15 16:44:04 35° 267° (W) 16:52:43 435.800 - 435.900 CW/SSB
Gurwin Techsat 1B 31 Jul 16:36:25 16:40:35 23° 265° (W) 16:44:47 435.225 FM
Uosat F 31 Jul 16:36:48 16:41:43 56° 73° (ENE) 16:46:39 435.120 FM
Saudisat 1A 31 Jul 16:58:42 17:03:06 76° 242° (WSW) 17:07:28 436.775 MHz
JAS-2 31 Jul 17:09:29 17:13:08 14° 60° (ENE) 17:16:41 435.800 - 435.900 CW/SSB, 435.910 FM
AO-7 31 Jul 17:27:32 17:35:46 62° 256° (WSW) 17:44:03 29.400 - 29.500 MHz
OPAL 31 Jul 17:41:03 17:46:11 90° 107° (ESE) 17:51:21 ?
KITSAT 1 31 Jul 17:44:50 17:50:10 20° 258° (WSW) 17:55:30 435.175 FM
Uosat F 31 Jul 18:18:11 18:20:48 14° 267° (W) 18:23:25 435.120 FM
RS-15 31 Jul 18:36:11 18:39:50 12° 359° (N) 18:43:30 29.354 - 29.394 USB, Beacon 29.352 USB
Hamsat 31 Jul 18:47:09 18:51:20 84° 259° (WSW) 18:55:33 145.90 MHz
JAS-2 31 Jul 18:49:23 18:57:11 80° 75° (ENE) 19:04:30 435.800 - 435.900 CW/SSB, 435.910 FM
SO-67 31 Jul 18:54:40 18:56:02 12° 69° (ENE) 18:57:24 435.3500 MHz FM
STRAND 1 31 Jul 20:09:01 20:14:07 73° 102° (ESE) 20:19:11 ?
MaSat-1 31 Jul 20:22:24 20:25:28 22° 102° (ESE) 20:28:54 437.345 MHz
SO-67 31 Jul 20:25:41 20:28:46 30° 263° (W) 20:31:53 435.3500 MHz FM
JAS-2 31 Jul 20:37:42 20:42:37 18° 268° (W) 20:47:23 435.800 - 435.900 CW/SSB, 435.910 FM
SO-50 31 Jul 20:38:50 20:42:33 22° 50° (NE) 20:46:16 436.795 FM
HO-68 31 Jul 20:48:49 20:55:11 36° 65° (ENE) 21:01:33 435.675 MHz FM
RS-15 31 Jul 20:49:55 20:58:21 24° 36° (NE) 21:06:54 29.354 - 29.394 USB, Beacon 29.352 USB
UKube-1 31 Jul 21:15:50 21:19:27 26° 70° (ENE) 21:23:03 145.840 MHz, 145.915 MHz
STRAND 1 31 Jul 21:50:47 21:52:38 12° 298° (WNW) 21:54:28 ?
Oscar 11 31 Jul 21:57:20 22:01:16 36° 72° (ENE) 22:05:13 145.825 FM, Beacon 2401.500 USB
MaSat-1 31 Jul 21:58:55 22:02:31 29° 302° (WNW) 22:06:36 437.345 MHz
ISS 31 Jul 22:02:47 22:05:35 25° 131° (SE) 22:08:24 145.800 FM
SO-50 31 Jul 22:18:45 22:23:15 41° 246° (WSW) 22:27:47 436.795 FM
UOSAT-12 31 Jul 22:23:29 22:26:46 18° 48° (NE) 22:30:01 437.025 FM, 437.400 FM
FUNcube-1 31 Jul 22:27:34 22:31:14 28° 71° (ENE) 22:34:50 145.950 - 145.970 MHz USB
